Regional Weather Roundup
Issued by NWS

Home | Current Version | Previous Version | Text Only | Print | Product List | Glossary Off
Versions: 1 2 3 4 5 6 7 8 9 10 11 12 13 14 15 16 17 18 19 20 21 22 23 24 25 26 27 28 29 30 31 32 33 34 35 36 37 38 39 40 41 42 43 44 45 46 47 48 49 50

000
ASUS43 KLOT 051100
RWRIL

ILLINOIS REGIONAL WEATHER ROUNDUP
NATIONAL WEATHER SERVICE CHICAGO/ROMEOVILLE IL
500 AM CST THU MAR 05 2015

NOTE: "FAIR" INDICATES FEW OR NO CLOUDS BELOW 12,000 FEET WITH NO
SIGNIFICANT WEATHER AND/OR OBSTRUCTIONS TO VISIBILITY.

* THESE STATIONS ARE NOT UNDER NWS QUALITY CONTROL. THEY ALSO MAY NOT
  REPORT WEATHER SUCH AS PRECIPITATION OR FOG.

ILZ001-002-007-009-015-016-024-051200-
NORTHWEST ILLINOIS

CITY           SKY/WX    TMP DP  RH WIND       PRES   REMARKS
MOLINE         CLEAR      3  -6  66 NW7       30.46R WCI  -9
STERLING*      CLEAR      0  -6  78 W6        30.42R WCI -12
$$

ILZ003-004-008-010-011-017-018-051200-
NORTH CENTRAL ILLINOIS

CITY           SKY/WX    TMP DP  RH WIND       PRES   REMARKS
ROCKFORD       PTCLDY     2  -7  66 NW6       30.41R WCI  -9
$$

ILZ005-006-012>014-019>023-051200-
NORTHEAST ILLINOIS

CITY           SKY/WX    TMP DP  RH WIND       PRES   REMARKS
CHICAGO-OHARE  PTCLDY     6  -8  52 N10       30.37R WCI  -9
CHICAGO-MIDWAY MOCLDY    11  -6  46 N9        30.38R WCI  -2
AURORA         PTCLDY    -1  -8  72 NW5       30.39R WCI -11
WAUKEGAN       PTCLDY     0 -10  63 NW5       30.36S WCI -10
DUPAGE AIRPORT PTCLDY     4  -6  63 N7        30.37R WCI  -8
WHEELING       PTCLDY     4  -7  60 NW7       30.39R WCI  -8
NORTHERLY ISL    N/A     13   1  59 NW7         N/A  WCI   3
$$

LMZ740>746-051200-
SOUTHERN LAKE MICHIGAN

STATION/POSITION SKY/WX   TEMP    WIND        PRES    VSBY  WAVE
                          AIR SEA DIR/SP/G                  HT/PER
                          (F)     (DEG/KT/KT) (MB)    (MI)  (FT/S)
WAUKEGAN HARBOR             6                   N/A
HARRISON CRIB              13     340/ 15/ 18   N/A
BURNHAM HARBOR             13     300/  8/ 14   N/A
CALUMET HARBOR             14     310/  7/ 12 1026.9R
MICHIGAN CITY              16     330/ 12/ 15   N/A
$$

ILZ025>027-034>036-040-047-049-050-058-095>099-051200-
WEST-CENTRAL ILLINOIS

CITY           SKY/WX    TMP DP  RH WIND       PRES   REMARKS
QUINCY         PTCLDY    10   3  73 N5        30.44R WCI   2
$$

ILZ028>032-037-038-041>044-048-051>054-059>061-051200-
CENTRAL ILLINOIS

CITY           SKY/WX    TMP DP  RH WIND       PRES   REMARKS
DECATUR        MOCLDY    10   1  67 N16       30.41R WCI  -7
PEORIA         MOCLDY     9  -2  61 CALM      30.45R
SPRINGFIELD    CLOUDY    13   2  61 N5        30.44R WCI   5
TAYLORVILLE    NOT AVBL
$$

ILZ033-039-045-046-055>057-062-063-051200-
EAST-CENTRAL ILLINOIS

CITY           SKY/WX    TMP DP  RH WIND       PRES   REMARKS
CHAMPAIGN      PTCLDY     9  -1  64 N13       30.37R WCI  -7
MATTOON        MOCLDY    10   2  69 N10       30.39R WCI  -4
$$

ILZ079-100>102-051200-
SOUTHWEST ILLINOIS

CITY           SKY/WX    TMP DP  RH WIND       PRES   REMARKS
BELLEVILLE     CLOUDY    18   5  58 NE10      30.44R WCI   6
CAHOKIA*       CLOUDY    20   6  55 N7        30.46R WCI  11
$$

ILZ064>066-069>071-074>076-080>082-084>086-088>090-092>094-051200-
SOUTH-CENTRAL ILLINOIS

CITY           SKY/WX    TMP DP  RH WIND       PRES   REMARKS
CARBONDALE     MOCLDY    19   5  54 N13G21    30.41R WCI   6
MT. VERNON     MOCLDY    18   1  49 N7        30.40R WCI   8
$$

ILZ067-068-072-073-078-083-087-091-051200-
SOUTHEAST ILLINOIS

CITY           SKY/WX    TMP DP  RH WIND       PRES   REMARKS
LAWRENCEVILLE  MOCLDY    18   8  65 N15       30.39R WCI   4
$$

ABBREVIATIONS USED IN REMARKS
   TC - TEMPERATURE IN CELSIUS
  WCI - WIND CHILL INDEX
   HX - HEAT INDEX
  VSB - VISIBILITY
$$




USA.gov is the U.S. government's official web portal to all federal, state and local government web resources and services.